GFSSGP_prec_cthk_123.txt.gz
RH
18 18 18 17 18 18 21 21 19 17 14 12 12 11 11 13 16 30 29 28 33 32 29 23 22 20 17 20 23 25 23 20 20 22 26 28 26 23 22 21 21 22 24 26 27 30 35 37 41
19 20 20 20 22 24 24 18 18 18 17 15 12 12 11 15 18 21 23 25 28 29 30 27 26 23 20 20 24 25 24 21 21 23 26 28 27 25 24 24 24 25 24 24 27 30 34 40 45
21 21 22 23 24 25 25 22 20 21 21 17 15 14 15 17 18 20 19 19 20 19 26 32 33 27 24 23 25 26 25 22 21 23 26 28 27 27 26 25 27 27 26 26 27 30 37 40 43
24 24 23 24 24 22 22 24 23 21 21 20 18 19 20 21 20 21 18 16 19 20 25 32 32 31 28 25 27 27 26 23 23 24 25 27 26 26 27 28 29 28 28 28 30 33 36 39 42
28 27 28 26 23 22 23 27 30 27 23 20 19 20 23 23 24 24 21 19 20 22 29 33 31 31 30 27 28 30 28 25 24 24 25 26 26 27 27 28 29 31 32 32 32 35 36 37 39
31 30 31 30 26 24 24 27 31 28 25 22 23 24 25 25 25 25 24 23 22 23 28 33 37 33 32 30 28 30 29 26 25 26 27 27 27 27 28 28 29 31 35 36 36 35 35 37 39
32 33 33 31 29 26 27 28 27 27 26 25 24 27 29 28 28 27 26 25 24 22 24 31 38 40 36 34 31 32 31 28 27 27 27 27 27 28 29 30 31 30 33 38 40 41 40 37 39
34 33 34 33 32 31 29 29 26 25 25 26 27 29 30 29 28 27 26 26 26 27 25 26 32 40 40 38 34 34 33 33 30 27 27 26 27 28 29 30 31 32 35 38 41 40 43 42 38
36 36 37 36 34 32 29 28 28 28 28 30 29 30 30 30 28 27 26 27 28 28 26 26 29 36 42 40 39 37 37 36 33 30 28 27 27 27 27 29 33 34 36 37 40 39 41 46 43
35 38 37 36 34 32 30 30 31 32 31 31 32 32 31 31 30 31 31 31 29 28 27 29 35 40 44 44 42 41 41 40 38 34 31 28 27 27 28 29 32 34 37 38 38 40 43 44 46
31 32 33 35 34 31 28 30 32 34 33 32 31 31 32 33 35 35 33 34 32 31 29 30 36 45 45 49 47 47 43 43 42 39 35 32 30 30 30 30 31 34 35 39 38 39 39 41 43
26 24 25 26 26 28 26 26 28 26 23 23 24 25 26 27 29 32 29 28 29 29 28 29 32 45 51 52 59 54 50 49 47 45 41 37 33 32 32 32 31 33 36 37 38 38 38 35 37
22 23 21 21 20 21 21 20 20 17 18 16 16 16 17 20 23 25 25 24 23 25 28 30 28 30 41 54 63 72 64 61 59 55 48 44 39 36 35 34 34 34 37 40 40 39 39 36 35
18 19 20 20 21 22 20 19 16 16 15 15 15 14 17 18 18 17 19 20 22 22 25 29 32 37 40 45 68 73 78 76 74 67 58 51 43 39 39 39 37 36 42 40 41 41 42 37 33
18 18 19 21 22 21 19 16 16 17 17 16 16 17 18 19 20 18 18 18 19 20 23 26 28 26 29 34 45 64 77 83 89 89 72 58 50 43 42 43 42 40 41 43 43 43 44 45 45
18 19 20 22 22 22 21 19 19 19 19 17 19 21 23 27 24 22 22 20 19 19 22 22 24 26 23 22 28 37 56 70 83 95 89 76 64 56 49 47 46 45 51 45 47 44 43 44 47
21 26 24 25 26 23 22 20 19 21 21 21 22 24 29 33 26 23 23 22 22 22 25 26 24 26 27 22 23 27 34 51 75 80 89 88 91 80 66 55 52 52 54 48 52 49 47 44 45
25 27 28 29 30 27 27 24 24 26 24 26 28 35 35 38 34 30 27 25 25 26 28 29 27 24 24 23 22 23 28 37 50 73 78 89 88 85 87 66 60 63 61 51 53 53 52 49 45
27 30 31 29 31 34 31 26 27 28 27 30 34 36 38 42 39 35 31 31 29 29 29 28 29 28 26 23 20 19 20 26 37 43 62 75 78 85 90 69 70 73 72 56 52 53 53 52 52
35 37 36 32 36 39 33 28 28 29 32 38 38 42 44 45 44 40 36 34 32 32 34 32 29 26 27 28 24 22 19 18 24 35 43 57 64 71 66 74 84 78 72 64 58 51 52 53 56
39 39 37 35 35 32 29 23 25 22 31 45 45 47 49 49 48 46 42 41 42 39 38 37 35 33 31 31 30 27 25 22 19 23 31 41 52 63 74 79 89 74 79 61 62 55 53 56 57
36 40 38 35 33 35 29 39 30 29 39 51 55 54 53 54 54 54 52 49 45 43 43 41 39 39 36 34 33 33 30 27 23 20 24 29 40 48 57 71 74 71 89 70 61 58 53 61 58
29 33 34 35 35 38 23 49 43 40 56 57 55 56 59 62 62 61 59 57 55 52 48 45 41 38 38 38 38 37 35 34 30 25 20 24 32 39 44 54 62 82 86 85 78 65 57 66 68
30 31 34 37 41 48 31 52 58 67 64 61 60 63 66 62 62 60 57 56 54 50 45 42 39 38 39 38 39 40 40 37 35 32 26 21 22 35 40 41 51 60 78 83 76 82 76 72 85
33 41 54 59 59 56 46 56 80 68 68 69 74 71 68 65 65 61 58 55 52 49 46 43 44 43 43 42 43 43 41 41 40 37 33 28 22 20 35 44 47 46 55 66 74 77 88 98 92
37 48 64 75 65 55 46 55 78 68 65 71 71 74 74 73 69 66 63 55 51 50 50 51 50 51 50 50 49 48 46 43 41 39 38 33 29 23 18 36 47 50 53 49 62 75 86 97 95
48 51 54 63 61 61 47 64 77 73 76 76 77 75 76 74 69 68 61 58 61 62 61 62 64 62 63 64 60 58 54 49 42 39 37 38 34 27 23 20 25 44 40 43 57 61 72 84 92
48 51 60 69 73 68 55 63 87 91 94 95 90 84 80 77 74 72 71 74 73 73 75 81 80 80 80 80 74 70 69 63 54 46 39 38 38 36 31 25 20 20 32 34 42 61 75 83 85
56 55 59 64 66 73 74 66 66 72 76 83 85 82 80 80 75 76 79 79 86 90 93 94 93 94 93 92 90 83 74 67 60 53 51 52 50 52 45 37 32 25 22 34 32 42 73 94 93
54 57 60 73 62 57 62 71 73 72 82 86 87 83 82 84 83 86 88 93 96 96 96 97 97 96 97 96 93 87 80 74 69 69 72 76 70 70 58 52 46 34 31 28 35 27 31 79 89

GFSSGP_prec_cthk_126.txt.gz
RH
18 17 17 16 16 18 20 18 16 16 16 14 12 14 16 16 18 25 27 29 29 29 31 30 27 24 19 18 21 24 25 24 22 22 25 27 26 23 22 22 23 24 26 28 27 29 35 40 42
20 20 19 18 20 24 24 20 18 18 18 16 14 14 16 22 19 20 22 22 24 28 29 31 28 24 22 19 20 23 25 24 23 23 25 27 27 25 25 24 25 26 28 28 29 31 39 42 44
22 22 21 21 23 25 23 21 22 20 20 19 16 17 18 22 22 23 24 19 18 20 21 28 34 29 27 23 22 23 25 25 24 23 26 28 28 26 25 25 27 28 28 29 31 32 38 44 44
24 24 24 24 23 23 25 27 26 21 20 20 18 20 22 24 23 22 20 19 18 19 24 29 35 35 33 27 24 25 25 25 24 24 26 27 27 26 25 24 26 28 29 30 32 35 43 40 42
28 28 28 28 25 24 24 27 27 26 25 22 21 25 24 26 24 22 21 20 21 21 23 28 33 37 37 33 28 28 27 26 25 25 24 25 26 25 25 24 24 26 28 31 34 40 42 42 42
31 30 32 32 28 26 26 25 27 27 28 25 24 24 25 27 27 26 25 24 23 22 22 23 26 37 39 37 33 30 30 28 26 25 24 24 25 25 25 24 24 24 28 31 34 38 40 41 41
32 32 34 32 31 31 29 27 27 26 26 27 25 29 29 28 27 26 25 26 26 26 25 24 22 29 42 42 38 35 33 30 29 27 26 25 25 24 25 25 25 25 26 30 35 39 41 41 41
32 33 35 35 35 34 29 27 27 27 27 28 30 31 32 31 30 29 28 27 27 28 27 26 23 24 33 45 44 40 37 34 32 32 30 26 26 25 25 25 25 25 27 30 34 39 41 41 40
34 37 38 37 34 32 32 29 28 29 30 32 32 32 31 32 31 30 31 31 31 27 28 30 30 30 30 39 46 43 41 38 36 35 34 32 28 27 26 25 26 26 27 29 34 36 40 43 43
34 38 38 36 34 32 32 31 30 31 33 34 35 35 35 33 32 31 30 33 34 32 29 32 36 35 35 36 45 47 42 41 40 39 39 35 32 29 27 27 28 28 30 32 34 35 38 43 46
30 32 31 32 31 29 28 29 30 30 33 32 33 32 30 28 27 28 29 31 31 31 31 31 37 40 41 42 42 50 47 44 44 43 40 38 35 33 30 28 28 30 32 33 35 36 38 41 42
22 24 24 25 26 27 28 28 28 29 29 28 26 21 20 19 19 20 20 20 21 23 29 35 45 51 49 45 50 52 56 50 47 47 44 42 40 36 34 30 30 29 31 34 36 36 38 37 40
15 17 16 16 16 17 17 19 20 20 23 20 21 20 18 17 16 16 15 15 15 17 25 32 32 35 42 49 54 65 70 68 62 62 58 54 49 45 41 37 35 33 32 33 35 38 39 42 38
15 16 16 16 17 17 17 17 17 17 17 16 17 18 17 17 16 15 16 16 15 16 19 25 27 26 30 34 39 52 63 73 85 82 75 75 69 60 50 43 41 38 36 34 35 39 41 43 44
19 18 18 16 17 17 16 16 19 19 18 18 19 20 19 19 19 19 20 20 20 19 19 20 23 26 27 29 31 37 54 62 71 88 86 77 90 81 66 53 48 41 38 36 39 40 44 45 45
17 17 20 20 21 21 21 22 21 21 21 20 19 21 22 24 24 25 25 25 24 22 20 21 22 23 26 27 24 26 31 45 62 74 86 93 94 97 90 72 56 49 48 44 44 45 44 44 46
20 23 23 22 22 21 20 20 21 23 25 23 23 26 27 27 29 29 28 29 28 27 27 25 21 21 21 24 26 24 23 27 35 51 69 85 90 88 92 86 71 63 62 56 51 46 46 43 45
25 25 25 26 24 25 25 25 28 29 27 29 29 31 33 33 33 33 32 33 33 33 32 29 26 22 23 22 22 24 22 21 24 31 43 63 82 93 95 98 87 85 68 62 63 54 53 51 49
26 27 28 29 27 28 28 29 30 32 36 38 39 39 39 39 38 36 35 34 33 33 33 31 29 27 25 24 24 21 23 18 16 18 26 39 55 77 85 94 96 88 80 73 77 65 57 60 65
32 33 33 32 30 30 29 27 34 40 47 45 46 49 49 45 44 41 38 36 36 37 37 34 33 31 29 27 26 26 23 23 18 15 14 20 40 51 73 88 92 93 84 85 86 77 72 67 76
37 36 34 34 30 30 29 25 26 36 38 40 41 42 43 45 45 46 45 45 44 41 39 38 38 37 35 34 31 29 31 27 25 20 17 14 17 39 52 69 83 98 94 88 89 84 77 79 81
36 36 34 33 32 32 27 32 22 32 41 40 44 49 52 55 55 53 51 50 47 45 44 43 45 46 43 40 39 38 37 33 29 27 23 19 15 17 39 52 61 76 83 91 95 76 73 77 81
33 30 30 30 32 30 30 39 22 35 43 48 52 58 63 63 61 59 55 53 53 52 51 52 53 53 54 53 47 42 37 35 33 30 28 25 21 18 20 39 50 58 68 77 81 81 70 78 72
31 30 31 31 34 38 29 42 31 47 52 59 62 67 71 72 70 67 65 62 58 57 55 51 49 46 45 43 42 40 38 36 36 35 33 28 25 22 19 24 37 42 58 64 67 72 82 82 90
29 33 47 46 48 43 33 44 57 55 57 60 65 70 73 72 69 66 65 66 63 60 58 56 52 48 46 46 46 45 44 42 41 40 38 36 31 27 24 22 27 35 38 48 58 69 80 83 88
34 37 52 59 59 51 40 50 64 59 59 62 64 68 73 75 72 68 65 62 60 58 54 51 53 53 51 50 54 53 54 52 50 46 44 42 39 34 30 28 24 27 35 39 41 56 70 82 91
42 43 48 58 54 62 49 70 66 64 68 71 77 84 83 76 72 69 63 59 57 57 58 62 65 65 65 65 63 62 62 62 60 55 52 48 43 40 37 34 29 25 26 38 41 41 54 65 78
47 51 61 71 68 67 55 59 77 79 82 80 77 76 77 74 72 69 63 64 66 71 75 80 81 84 85 82 80 76 75 71 63 57 53 50 43 38 35 32 34 31 26 26 37 42 39 56 62
55 56 58 60 61 67 71 69 71 67 67 69 71 70 77 74 71 72 72 75 79 82 86 86 94 97 96 92 89 90 87 85 75 67 60 54 48 41 35 34 35 36 34 28 26 34 44 38 44
54 53 56 66 63 66 65 61 60 64 64 72 74 78 82 79 75 81 85 89 89 92 94 96 95 95 94 93 90 88 86 86 77 74 68 61 56 52 51 50 48 42 39 40 34 23 28 41 39

GFSSGP_prec_cthk_129.txt.gz
RH
18 18 18 17 16 18 20 19 17 15 14 12 13 14 17 18 20 23 32 30 29 30 31 34 33 33 26 23 23 22 22 23 24 23 22 23 22 20 20 22 24 25 28 29 28 28 30 32 37
19 19 19 18 20 21 21 22 20 18 15 14 15 16 18 23 25 27 28 25 25 24 25 28 33 33 32 27 25 24 23 24 25 25 23 24 23 22 21 22 24 26 28 30 30 30 32 34 37
22 21 21 22 26 23 23 23 25 20 18 16 16 19 21 27 28 27 25 24 22 21 23 25 26 29 33 30 27 27 25 25 26 27 25 24 24 22 22 22 23 25 27 29 30 32 34 39 41
24 24 23 25 25 24 26 25 23 22 20 19 20 22 26 27 29 26 22 22 21 22 23 24 27 30 33 34 31 28 28 28 27 28 27 25 25 23 24 23 24 26 26 28 28 30 37 44 42
26 26 28 28 27 25 26 25 24 22 22 23 22 25 26 27 26 25 24 24 23 25 26 27 26 28 31 34 34 30 29 30 29 29 30 27 27 25 24 24 24 26 26 27 28 32 37 40 41
29 29 33 32 30 28 26 25 25 26 27 26 26 26 26 26 27 27 27 27 25 25 26 27 26 27 31 35 38 33 29 30 31 30 32 31 29 28 27 26 25 26 26 26 28 32 37 39 39
32 32 35 33 32 30 26 25 26 27 28 27 28 30 30 29 29 28 27 26 27 27 27 28 28 28 31 39 42 39 33 31 32 31 32 33 33 29 28 28 27 27 27 27 28 32 36 39 38
32 33 34 35 35 33 30 28 26 26 28 29 30 33 34 33 33 32 32 30 29 29 30 30 30 32 36 41 49 49 40 36 35 33 33 34 35 33 31 30 30 28 28 28 29 32 37 39 38
30 34 38 37 36 35 33 31 30 28 29 30 31 32 32 33 32 32 32 30 30 29 30 34 37 40 40 39 42 53 53 43 40 38 36 37 37 35 35 33 32 30 31 31 32 34 38 39 38
29 34 38 37 36 36 34 32 32 32 32 32 31 32 31 31 32 33 32 30 29 30 32 37 46 45 44 46 45 44 55 55 48 44 41 40 41 40 38 38 36 34 33 33 35 38 39 39 39
24 27 29 32 32 31 33 33 32 33 36 34 31 31 30 31 30 27 24 24 26 25 25 30 35 40 42 50 59 55 54 62 59 54 50 46 45 45 44 42 42 39 37 36 37 40 41 41 42
17 19 20 23 23 25 26 26 27 27 27 28 30 29 26 23 22 21 20 19 17 17 18 24 25 28 36 46 56 63 67 61 65 62 57 52 52 51 51 49 46 45 41 38 38 39 41 45 47
14 15 16 16 16 17 17 18 18 17 21 19 18 18 18 17 18 20 20 20 19 18 22 24 24 25 31 36 43 48 56 62 69 73 71 68 61 57 56 53 50 48 46 43 41 41 43 45 47
15 14 15 16 17 18 18 17 17 18 17 16 15 16 17 18 19 19 19 19 19 19 20 22 22 24 27 28 28 32 39 50 66 74 79 82 81 77 73 67 59 52 49 48 49 44 45 46 47
17 17 17 16 16 18 19 20 21 21 20 18 19 21 22 23 23 23 23 23 23 23 23 23 23 22 23 26 27 26 27 34 43 60 78 87 90 86 90 90 75 68 61 59 55 52 50 49 50
18 18 18 17 19 20 19 21 19 19 19 20 23 24 25 26 26 27 27 25 26 26 25 25 25 25 24 23 22 24 24 23 25 34 45 69 89 97 91 91 85 82 78 71 66 59 56 53 54
21 21 21 21 21 22 22 22 23 21 21 23 27 28 29 30 30 31 31 31 30 28 26 26 26 26 25 25 23 22 24 25 23 22 27 36 49 65 80 97 83 96 88 86 79 71 64 56 55
23 23 23 24 23 25 26 26 26 28 28 32 32 33 34 35 36 35 34 32 30 29 27 27 27 25 24 23 23 23 22 22 23 21 19 19 26 34 48 62 96 86 89 94 92 84 77 68 62
25 26 27 27 27 28 27 30 29 35 36 38 40 41 40 40 39 37 36 35 35 36 35 33 31 27 27 25 24 25 24 23 24 24 21 19 17 20 25 38 55 95 92 90 96 92 81 86 78
32 32 33 31 30 30 31 32 39 38 40 42 44 46 46 43 40 38 36 36 36 36 36 35 34 33 31 29 28 28 29 27 26 25 25 26 23 20 20 23 36 64 85 94 95 91 91 82 91
36 38 37 34 31 30 30 30 35 38 37 37 38 39 38 38 37 37 38 39 39 40 39 39 39 39 40 39 38 35 34 32 31 30 27 27 29 28 22 19 23 39 53 94 83 91 92 88 93
40 37 34 33 33 35 31 37 30 38 38 37 38 39 40 42 43 43 44 44 43 44 46 47 46 43 42 41 42 40 37 35 35 32 31 30 32 31 28 22 17 25 41 70 97 87 95 90 92
33 31 31 30 31 31 32 34 32 39 40 41 42 48 52 53 54 54 54 53 53 52 50 47 45 45 44 44 45 45 40 37 36 37 37 34 33 34 33 28 21 15 29 45 80 84 94 89 86
35 34 34 35 34 36 29 33 27 41 43 47 50 55 57 58 60 60 59 57 55 52 50 49 48 48 48 47 48 46 42 40 38 37 36 39 37 34 36 35 30 21 17 33 51 74 80 84 97
35 36 46 46 46 41 34 39 34 43 46 50 55 58 61 63 62 60 57 54 51 49 49 49 51 50 50 48 46 46 46 45 44 44 44 44 43 42 40 39 37 32 23 21 35 48 70 80 82
33 34 44 47 55 43 38 44 41 47 50 56 60 66 70 69 65 60 59 59 57 55 54 52 51 52 54 55 57 59 57 54 50 53 53 53 50 47 43 44 42 38 33 26 26 31 37 54 68
34 38 42 53 52 58 43 52 51 51 56 62 68 73 71 68 64 62 64 62 60 57 55 57 58 63 68 73 75 73 67 63 60 61 62 60 59 56 51 48 45 42 39 34 29 29 29 32 42
35 41 53 64 72 69 50 48 55 57 61 69 67 68 64 66 65 62 61 60 61 64 69 72 76 82 90 88 84 83 80 79 74 72 71 66 63 59 56 52 48 43 41 40 36 31 34 33 33
42 46 52 61 63 73 60 54 52 58 64 62 60 64 70 68 66 67 66 68 74 79 83 88 95 95 89 84 87 86 87 90 93 92 83 75 64 57 54 52 49 46 42 40 41 38 34 35 37
43 46 52 70 59 65 67 48 59 63 61 59 60 65 65 67 69 69 72 80 86 90 95 96 96 94 88 88 91 92 93 94 95 94 90 82 74 63 57 51 43 40 41 43 40 41 42 39 38

GFSSGP_prec_cthk_132.txt.gz
RH
18 18 18 17 18 18 20 19 18 16 13 16 15 13 17 21 22 23 31 34 32 31 33 33 34 31 30 28 26 25 26 28 29 28 27 25 22 20 19 20 21 22 24 24 26 26 29 31 34
20 20 19 18 21 21 23 23 19 17 14 13 14 18 20 23 25 29 30 29 28 28 29 30 33 36 36 32 29 27 26 26 28 30 31 31 25 23 21 21 22 23 25 26 26 26 28 31 34
21 21 21 23 27 24 26 24 23 19 16 14 16 19 23 27 28 29 28 26 27 29 30 31 32 35 36 35 33 31 28 27 27 30 31 34 32 26 23 23 24 25 26 28 28 28 28 31 36
23 23 23 26 26 27 24 23 21 22 20 20 20 23 26 28 28 27 26 27 28 29 32 33 33 33 35 36 37 36 31 29 29 30 30 33 35 30 26 24 24 25 27 29 29 29 29 32 37
24 24 27 29 28 27 25 24 23 23 22 23 22 25 26 27 26 27 29 29 31 32 34 35 36 37 37 40 45 44 39 34 33 33 32 32 35 34 29 26 25 26 28 29 29 30 31 34 37
25 27 30 32 30 27 26 25 26 24 24 24 26 26 27 27 27 28 29 30 31 33 35 35 37 38 36 36 40 48 45 39 36 37 35 34 35 36 32 29 27 27 29 31 29 30 33 36 37
27 28 32 34 33 29 27 27 28 27 26 26 27 29 29 28 28 28 28 31 33 33 35 36 36 37 38 41 42 47 50 45 40 40 39 39 37 39 37 35 31 29 29 30 31 32 35 38 40
26 27 31 33 36 34 31 29 29 29 29 30 31 31 32 31 31 30 30 31 33 33 34 37 38 40 41 42 46 51 58 55 46 44 44 43 42 42 43 38 37 34 32 31 32 32 35 40 42
25 28 32 33 36 35 34 33 31 30 30 30 31 32 32 32 32 31 30 30 30 32 33 35 38 41 44 45 46 47 52 62 60 51 48 47 44 44 46 44 39 37 35 34 34 33 35 39 42
25 30 30 31 34 36 36 35 36 35 34 32 30 29 28 30 30 31 32 32 33 31 31 33 37 38 39 44 52 51 52 55 64 63 59 54 51 49 49 50 47 42 39 38 37 38 38 40 42
22 24 24 25 27 31 34 33 34 33 32 32 30 28 26 27 26 26 28 30 27 22 23 27 27 28 34 33 38 48 57 60 61 67 69 70 65 58 55 54 51 47 44 41 41 39 39 40 42
15 19 19 22 23 23 24 26 25 25 26 27 28 27 25 24 24 25 25 24 22 21 21 23 23 24 24 25 27 35 48 56 63 66 75 71 72 71 68 60 55 51 48 45 44 45 43 44 45
13 14 14 16 17 17 17 17 17 18 18 17 17 17 19 19 20 22 22 23 23 22 23 24 23 23 23 23 26 29 33 42 50 65 73 85 83 80 77 70 66 63 57 52 48 49 48 47 48
14 14 14 15 16 16 16 16 18 19 19 20 20 22 23 23 24 24 23 24 24 24 25 25 25 25 25 24 24 25 27 25 31 39 49 61 90 90 89 86 80 71 69 60 55 50 52 53 52
15 15 16 15 16 18 18 18 18 18 19 22 23 24 24 25 25 25 25 25 26 25 26 27 27 26 25 25 25 24 24 25 22 21 27 38 50 66 88 97 93 90 84 74 67 63 59 58 57
16 16 17 18 19 20 19 20 19 19 20 25 25 25 26 27 27 28 28 29 28 28 28 28 27 27 26 26 26 25 24 24 24 24 21 22 31 42 50 63 69 91 92 97 83 65 70 65 66
18 19 19 19 19 20 22 22 23 22 23 27 28 28 29 30 30 31 31 32 32 32 32 31 29 28 27 26 26 26 26 25 25 24 24 23 20 24 32 40 44 58 75 91 99 90 72 69 74
21 20 20 20 19 22 25 25 27 29 30 31 32 33 34 34 34 35 34 34 33 33 33 32 32 29 27 25 25 24 23 24 25 25 24 22 21 20 17 23 27 33 45 52 71 94 90 79 77
24 25 26 26 27 27 27 27 32 33 34 36 38 38 40 41 40 40 38 37 36 34 33 32 31 30 29 28 26 26 26 27 25 23 23 25 24 23 22 19 21 24 25 37 47 62 88 74 85
29 30 31 30 30 30 30 29 35 37 37 37 38 39 39 39 38 37 36 36 35 34 33 33 33 33 32 31 31 31 30 29 30 29 27 27 25 25 24 25 23 21 22 25 33 42 71 83 87
32 34 35 35 32 31 30 29 39 38 38 39 38 38 37 36 35 35 35 35 35 35 35 36 36 37 37 36 35 36 35 34 34 35 33 31 30 30 28 27 27 27 27 23 28 36 46 70 93
38 37 37 35 32 34 30 34 27 37 38 37 36 35 36 35 37 38 38 38 39 39 40 41 41 42 43 43 43 43 42 41 39 36 33 32 33 33 33 31 30 30 29 29 26 32 38 48 65
40 36 34 32 33 33 33 37 30 38 39 37 38 40 40 41 42 44 44 44 43 43 42 45 46 46 45 45 45 44 44 42 37 36 36 34 33 32 32 32 32 31 30 30 28 31 36 42 51
36 37 38 40 39 42 34 36 29 42 37 40 41 44 45 46 48 49 49 47 44 44 42 44 45 45 44 44 44 45 44 45 43 42 42 41 40 39 37 37 36 33 31 30 30 31 36 44 44
38 40 50 53 51 44 36 39 31 38 41 42 47 48 49 50 53 53 50 50 50 48 48 49 51 52 52 52 51 49 48 49 48 48 45 45 46 46 45 44 43 41 37 32 29 30 39 36 39
37 41 50 50 53 44 41 44 35 41 43 45 47 49 54 57 56 54 56 56 54 53 51 52 55 55 55 54 54 54 58 62 64 65 64 59 55 54 53 51 48 44 42 38 32 30 33 40 42
38 38 36 42 44 52 38 37 42 44 47 49 51 56 61 60 56 56 56 54 55 54 54 56 62 66 67 68 71 73 72 75 83 84 76 70 65 61 59 59 56 52 46 42 40 33 32 43 40
37 36 43 54 60 59 44 41 40 49 51 55 62 66 61 59 57 58 57 57 57 59 62 70 77 83 85 81 75 73 77 86 90 93 91 87 78 72 68 66 60 59 53 47 45 42 40 37 47
43 41 42 48 52 64 57 50 39 45 53 61 66 66 63 63 59 61 63 61 62 66 77 88 95 92 89 81 76 79 88 96 97 97 97 97 94 84 79 72 67 65 61 54 47 46 48 45 40
42 41 44 61 51 54 65 44 42 54 62 65 65 62 64 64 65 68 66 69 69 70 86 94 95 93 92 85 84 90 96 97 97 97 97 97 94 91 82 73 68 64 59 55 53 52 48 47 47

GFSSGP_prec_cthk_135.txt.gz
RH
17 18 18 18 18 18 20 18 16 16 14 17 13 20 20 23 25 26 35 36 38 38 40 42 44 41 38 36 36 34 32 31 29 27 27 26 25 21 19 19 20 21 22 24 25 25 27 30 31
18 19 19 19 19 20 21 21 19 17 15 15 16 19 19 24 27 33 35 32 32 34 36 39 41 43 45 47 44 38 36 33 31 30 30 28 27 26 21 19 20 22 23 24 26 26 27 30 32
19 19 20 21 22 22 22 21 21 18 16 15 19 21 24 29 32 30 29 30 30 33 35 36 37 42 46 47 47 44 40 37 34 32 32 32 31 30 27 22 21 22 23 25 27 28 28 29 32
20 20 22 23 25 24 23 22 22 22 21 19 21 24 27 29 29 27 27 29 31 34 38 40 40 39 42 44 47 47 45 42 40 36 34 34 34 33 33 29 25 24 25 26 28 28 29 29 31
21 21 24 26 26 26 24 24 23 23 24 24 23 26 29 30 29 29 29 29 32 34 36 36 37 39 40 42 44 48 52 49 43 41 39 38 37 38 37 35 31 28 27 27 29 29 29 29 33
23 23 24 26 26 26 26 25 25 24 25 25 27 28 29 30 30 30 29 30 32 33 34 36 36 35 36 38 42 45 50 53 50 45 43 42 41 44 44 40 36 32 30 29 30 29 29 30 34
23 24 27 29 27 27 27 26 27 26 26 28 31 32 32 32 32 31 30 32 32 32 35 36 36 35 35 37 41 45 50 60 58 51 48 46 47 45 43 43 42 42 39 35 32 31 30 30 33
22 24 28 29 29 28 27 28 28 29 29 30 32 35 37 35 34 33 33 33 33 31 33 35 37 38 38 38 39 44 51 57 60 67 60 51 50 53 48 45 46 46 40 35 35 33 33 34 34
22 24 28 29 30 29 29 29 29 30 30 31 32 32 32 31 32 32 32 32 32 32 33 37 40 40 41 39 43 46 50 57 62 63 69 75 57 53 54 50 48 44 45 42 36 36 35 36 38
23 26 27 28 29 28 30 31 32 31 30 32 32 30 29 29 31 31 32 33 33 34 34 35 37 34 33 38 41 43 46 53 57 64 66 73 71 63 58 58 58 54 50 48 45 41 39 39 39
22 23 24 25 26 26 27 26 28 30 31 30 29 28 28 29 27 25 24 25 27 28 29 27 25 25 27 30 33 36 37 41 48 54 63 72 72 79 76 64 60 58 56 53 51 48 42 40 40
15 16 19 20 22 22 22 23 23 24 26 24 22 21 21 20 21 23 25 25 25 25 24 24 24 24 24 23 23 24 26 29 34 45 51 58 73 75 76 77 74 68 65 60 55 51 48 44 43
14 13 14 14 15 16 17 16 17 19 20 20 22 21 21 23 24 23 23 25 25 26 26 26 26 26 27 28 26 26 24 21 21 27 38 47 51 61 77 77 76 71 71 71 70 64 60 53 49
14 14 14 14 14 14 14 14 14 18 19 20 21 22 23 23 24 24 24 24 24 25 25 26 27 27 27 28 28 28 27 27 24 22 24 29 38 49 58 66 93 82 81 79 80 86 78 68 58
16 14 15 15 15 15 15 15 17 22 22 22 24 24 25 25 25 25 25 25 26 26 26 26 27 27 28 28 29 29 28 28 28 26 24 23 24 27 35 47 53 79 92 93 84 86 90 80 73
18 16 16 16 17 18 17 18 21 24 23 24 26 26 26 27 27 28 28 28 28 29 30 30 31 31 31 30 30 29 28 27 27 28 28 26 24 21 21 25 34 45 55 74 70 86 92 98 86
21 18 18 18 18 18 19 19 23 25 27 28 28 29 30 30 30 30 30 31 31 31 32 32 32 32 33 33 32 31 29 27 26 26 26 26 25 24 23 20 20 25 32 43 44 53 64 86 99
24 23 24 22 19 20 21 22 27 30 30 31 32 33 34 34 34 34 34 34 34 34 34 33 32 32 31 30 29 29 28 27 25 25 24 24 25 24 24 22 21 19 19 25 33 40 42 46 76
25 25 26 26 25 27 26 26 28 32 33 34 35 37 38 38 37 36 36 35 35 35 34 33 31 30 29 28 27 27 27 28 27 26 25 24 24 24 24 24 24 23 21 21 22 27 31 36 53
26 28 29 29 29 29 27 27 31 34 36 37 37 38 37 36 35 35 34 34 34 34 34 34 34 32 31 29 28 27 26 26 27 27 28 27 26 26 25 25 24 23 23 23 23 23 28 28 32
29 31 31 31 31 29 27 25 30 33 34 35 35 36 35 35 34 33 33 35 36 35 35 34 32 32 32 33 32 32 31 30 30 30 30 31 30 29 28 27 26 25 23 23 25 27 25 31 30
34 32 33 34 31 30 28 26 24 31 34 34 35 36 36 35 34 34 36 37 37 37 34 32 32 31 31 31 32 31 31 32 33 33 34 35 37 37 36 33 31 30 29 26 25 27 28 33 32
35 33 32 32 32 31 30 29 25 35 31 32 34 36 37 36 37 38 38 39 38 36 36 37 37 37 38 38 38 37 39 39 39 38 36 34 34 37 37 36 35 35 33 29 26 25 26 28 38
32 34 35 36 35 35 31 32 22 30 29 33 35 38 40 41 40 41 42 40 39 40 39 39 40 41 42 42 43 44 44 45 46 46 44 43 41 40 42 42 40 37 35 33 28 24 24 26 29
37 40 43 41 40 37 35 34 27 29 34 35 36 40 44 44 45 46 43 43 44 43 43 45 47 49 49 50 50 50 49 49 50 50 50 52 55 57 55 50 47 43 40 40 37 32 26 26 27
38 40 43 47 44 37 39 36 29 33 35 39 41 43 46 48 48 47 46 48 49 50 50 51 53 53 55 56 55 57 59 61 62 66 69 73 76 80 77 68 60 53 48 43 42 40 35 31 29
39 40 41 44 45 46 34 33 34 37 38 37 38 44 49 52 53 52 54 54 53 51 50 56 61 64 69 69 67 67 69 72 75 78 83 86 90 89 81 74 67 58 52 49 48 47 42 37 33
42 42 46 49 53 50 38 37 33 37 33 36 44 51 56 57 60 60 59 57 53 50 59 66 73 82 85 84 80 75 76 82 86 89 96 96 96 96 92 82 71 65 61 57 56 53 46 42 38
47 48 50 53 52 54 51 44 35 35 33 40 47 53 59 60 55 58 59 57 52 49 62 69 88 86 84 90 85 84 87 90 95 96 97 97 97 97 97 91 83 80 74 70 67 60 53 50 48
54 53 54 57 48 47 53 43 32 37 43 50 56 54 55 53 47 57 65 62 60 61 73 80 71 59 69 87 88 92 92 96 97 97 97 97 92 91 95 91 81 77 74 70 68 65 61 56 54